Regional Weather Roundup
Issued by NWS

Home | Current Version | Previous Version | Text Only | Print | Product List | Glossary On
Versions: 1 2 3 4 5 6 7 8 9 10 11 12 13 14 15 16 17 18 19 20 21 22 23 24 25 26 27 28 29 30 31 32 33 34 35 36 37 38 39 40 41 42 43 44 45 46 47 48 49 50
000
ASUS46 KLOX 282012
RWRCA

SOUTHERN CALIFORNIA WEATHER ROUNDUP
NATIONAL WEATHER SERVICE OXNARD CALIFORNIA
1200 PM PST WED JAN 28 2015

NOTE: "FAIR" INDICATES FEW OR NO CLOUDS BELOW 12,000 FEET WITH NO
SIGNIFICANT WEATHER AND/OR OBSTRUCTIONS TO VISIBILITY.

  -  STATIONS PRECEEDED BY AN ASTERISK (*) ARE NOT NWS OR FAA
     STATIONS AND ARE NOT SUBJECT TO NWS AND FAA QUALITY CONTROL.

CAZ041-042-087-282100-
LA AND ORANGE COUNTY COASTAL AREAS


CITY           SKY/WX    TMP DP  RH WIND       PRES   REMARKS
L.A. DOWNTOWN  PTSUNNY   72  48  42 CALM      30.10F
L.A. AIRPORT   CLOUDY    69  48  47 SE3       30.10F
LONG BEACH     PTSUNNY   72  49  44 N6        30.09F

CITY           SKY/WX    TMP DP  RH WIND       PRES   REMARKS
AVALON           N/A     68 N/A N/A MISG        N/A
FULLERTON      PTSUNNY   75  41  29 E15       30.08F
*GETTY CENTER    N/A    N/A N/A N/A NE3G9       N/A
HAWTHORNE      PTSUNNY   72  44  36 CALM      30.10F
*LOS ALAMITOS  CLOUDY    74  46  37 NE8       30.08F
*REDONDO BEACH   N/A     72  47  40 CALM      30.10F
SANTA ANA      CLOUDY    74  46  36 W5        30.09F
STA MONICA APT CLOUDY    73  46  38 CALM      30.10F
*STA MON PIER    N/A     63  57  81 SW5       30.09F
TORRANCE       CLOUDY    72  46  40 CALM      30.11F
*UCLA            N/A     73  39  29 CALM      30.07F

$$

CAZ547-548-048-282100-
LA COUNTY VALLEYS AND INLAND EMPIRE


CITY           SKY/WX    TMP DP  RH WIND       PRES   REMARKS
BURBANK        PTSUNNY   71  42  35 SW6       30.10F
VAN NUYS       PTSUNNY   71  47  42 N10       30.10F

CITY           SKY/WX    TMP DP  RH WIND       PRES   REMARKS
CORONA AIRPORT MOCLDY    73  44  35 E7        30.11F
CHINO          PTSUNNY   73  43  33 E13       30.11F
MARCH AFB      PTSUNNY   69  43  38 NE12      30.12F
*NORTHRIDGE      N/A     70  43  37 N5G13       N/A
ONTARIO        CLOUDY    70  46  42 NW3       30.10F
*PASADENA        N/A     72  48  43 NE5         N/A
POMONA         SUNNY     66  46  48 CALM      30.14
RIVERSIDE      PTSUNNY   73  43  33 NE9       30.11F
SAN BERNARDINO CLOUDY    64  34  32 CALM      30.17
*SAN GABRIEL     N/A     72  38  28 CALM      30.06F
*WHITEMAN AP   NOT AVBL
*WOODLAND HILL   N/A     72  43  35 VRB7        N/A

$$

CAZ054-055-282100-
LA AND SAN BERNARDINO COUNTY MOUNTAINS


CITY           SKY/WX    TMP DP  RH WIND       PRES   REMARKS
*BIG BEAR AIRP PTCLDY    46  30  53 E9        30.26F
*CHILAO          N/A     54  37  52 NE9G21      N/A
MT WILSON NWS    N/A     59  23  25 MISG        N/A
SANDBERG       PTSUNNY   50  43  77 E21       30.24F
*WARM SPRINGS    N/A     52  45  76 NE16G28     N/A

$$

CAZ028-029-059-060-099-282100-
ANTELOPE VALLEY AND SURROUNDING AREAS


CITY           SKY/WX    TMP DP  RH WIND       PRES   REMARKS
LANCASTER      PTSUNNY   55  46  71 E3        30.24F
PALMDALE       PTSUNNY   55  48  77 NE9       30.24F

CITY           SKY/WX    TMP DP  RH WIND       PRES   REMARKS
29 PALMS       PTSUNNY   60  48  64 NW5       30.27F
BARSTOW/DAGGET MOSUNNY   60  48  64 CALM      30.24F
BISHOP         SUNNY     58  30  34 N7        30.26F
CHINA LAKE     CLOUDY    59  46  62 E6        30.24F
EDWARDS AFB    PTSUNNY   54  49  83 N7        30.22F
MOJAVE         FAIR      55  46  71 NE9       30.24F
NEEDLES        MOSUNNY   67  51  56 NE8       30.18F
VICTORVILLE      N/A     55  48  76 N7        30.22F

$$

CAZ039-040-282100-
VENTURA AND SANTA BARBARA COUNTY COAST


CITY           SKY/WX    TMP DP  RH WIND       PRES   REMARKS
CAMARILLO      CLOUDY    72  48  42 E10       30.10F
NWS OXNARD       N/A     71  47  42 CALM      30.09F
OXNARD AIRPORT CLOUDY    72  48  42 E9G17     30.10F
*POINT MUGU    CLOUDY    73  51  46 NE9       30.11F
SBA APT/GOLETA CLOUDY    66  51  58 SW3       30.11F
*SANTA BARBARA   N/A     70  50  49 E3        30.18F
*VENTURA         N/A     71  45  39 NE5       30.14F

$$

CAZ044-045-282100-
VENTURA COUNTY VALLEYS


CITY           SKY/WX    TMP DP  RH WIND       PRES   REMARKS
*SIMI VALLEY     N/A     67  49  53 N13       30.08F
*OJAI            N/A     70  49  48 CALM      30.06F

$$

CAZ053-282100-
VENTURA COUNTY MOUNTAINS


CITY           SKY/WX    TMP DP  RH WIND       PRES   REMARKS
*LOCKWOOD VLY    N/A     46  37  71 MISG        N/A
*ROSE VALLEY     N/A     61  45  55 MISG        N/A

$$

CAZ034-035-036-282100-
CENTRAL COAST AND SANTA YNEZ VALLEY


CITY           SKY/WX    TMP DP  RH WIND       PRES   REMARKS
SAN LUIS OBISP CLOUDY    66  49  54 CALM      30.15F
SANTA MARIA    CLOUDY    67  52  58 NW3       30.15F

CITY           SKY/WX    TMP DP  RH WIND       PRES   REMARKS
*CAL POLY SLO    N/A     63  52  67 N17         N/A
*LOMPOC        CLOUDY    63  48  59 CALM      30.15F
*PISMO BEACH     N/A     69  51  54 NE2       30.14F
*SANTA YNEZ    FAIR      61  50  67 SW5       30.14F

$$

CAZ037-038-051-282100-
SAN LUIS OBISPO COUNTY INTERIOR AND CUYAMA VALLEY


CITY           SKY/WX    TMP DP  RH WIND       PRES   REMARKS
*CUYAMA          N/A     57  50  78 CALM      30.17F
PASO ROBLES    PTSUNNY   53  48  83 NW6       30.21F

$$

CAZ032-033-061-282100-
SOUTHERN DESERTS


CITY           SKY/WX    TMP DP  RH WIND       PRES   REMARKS
BLYTHE         MOSUNNY   66  54  65 CALM      30.16F
IMPERIAL       PTSUNNY   70  53  54 NW6       30.13F
PALM SPRINGS   MOSUNNY   73  43  33 VRB3      30.16F
THERMAL        MOSUNNY   73  47  39 SW3       30.13F

$$

ELSEWHERE ACROSS THE WESTERN UNITED STATES AND MEXICO


CITY           SKY/WX    TMP DP  RH WIND       PRES   REMARKS
DENVER, CO     PTSUNNY   58  19  22 W21G29    30.03F
GRAND CANYON,  MOSUNNY   51  23  33 CALM      30.27F
HONOLULU, HI   PTSUNNY   79  63  57 W3        29.98R
KAHULUI, MAUI  MOSUNNY   79  63  57 CALM      29.99S
LAKE TAHOE, CA SUNNY     46  31  55 N6        30.30F
LAS VEGAS, NV  PTSUNNY   59  45  59 S6        30.20F
MAMMOTH LAKES, FAIR      46  23  39 S3        30.31F
MEXICO CITY, M SUNNY     70  34  26 N6G17     30.31F
PHOENIX, AZ    PTSUNNY   71  48  43 VRB3      30.10F
PORTLAND, OR   FOG       50  50 100 N3        30.36F VSB 1/4
RENO, NV       PTSUNNY   48  28  46 VRB3      30.32F
SALT LAKE CITY PTSUNNY   48  36  63 N7        30.30F
SAN DIEGO, CA  PTSUNNY   72  46  39 CALM      30.09F
SAN FRANCISCO, MOSUNNY   58  52  80 NE3       30.23F
SAN JOSE, CA   MOSUNNY   61  47  59 CALM      30.23F
SEATTLE, WA    PTSUNNY   50  44  80 W3        30.40S
TIJUANA, MEX   PTSUNNY   73  41  31 NE13      30.10F

$$

STATION/POSITION TIME  TEMP    WIND        PRES    VSBY  WAVE
                       AIR SEA DIR/SP/G                  HT/PER
                 (UTC) (F)     (DEG/KT/KT) (MB)    (MI)  (FT/S)
POINT ARGUELLO B NOT AVBL
WEST SANTA BARBA 2000   60 61  340/  4/  6 1019.9F         5/14
POINT CONCEPTION NOT AVBL
EAST SANTA BARBA NOT AVBL
SANTA MONICA BAY 2000   63 63  230/  4/  4 1020.2F         4/14



USA.gov is the U.S. government's official web portal to all federal, state and local government web resources and services.